DW9306 Mill Creek WA US current weather conditions

sailwx.info

Wind from 053 at 2 knots gusting 7

Air temperature 12.8° C
Dewpoint 8.8° C

Last reported at 2019-Jun-20 03:03 UTC.
Time now 2019-Jun-20 03:57 UTC

Location: N 48°05' W 122°23'.
View on Google Maps.

See reports from other nearby stations

  
Tides and Currents Weather Stations Pressure Air Temp Water Temp Dewpoint Dewpoint Depression Visibility Wind Speed Wind Dir Waves Ship Positions
date/time (UTC)wind fromknots sea level pressurealtimeterstation pressurevisibilityair tempwater tempwave heightnotes
2019-Jun-20 03:08 043 0 gusting 6 12.8
2019-Jun-20 03:03 053 2 gusting 7 12.8
2019-Jun-20 02:58 070 0 gusting 7 12.8
2019-Jun-20 02:53 086 1 gusting 6 12.8
2019-Jun-20 02:43 249 0 gusting 13 12.8
2019-Jun-20 02:38 063 0 gusting 13 13.3
2019-Jun-20 02:33 267 0 gusting 6 13.3
2019-Jun-20 02:28 090 2 gusting 8 13.3
2019-Jun-20 02:23 078 2 gusting 10 13.3
2019-Jun-20 02:18 070 0 gusting 10 13.3
2019-Jun-20 02:13 329 1 gusting 6 13.3
2019-Jun-20 02:08 294 0 gusting 8 13.3
2019-Jun-20 02:03 079 2 gusting 9 13.3
2019-Jun-20 01:58 134 0 gusting 8 13.3
2019-Jun-20 01:53 055 2 gusting 8 13.3
2019-Jun-20 01:48 116 1 gusting 7 13.3
2019-Jun-20 01:43 239 0 gusting 11 13.3
2019-Jun-20 01:38 028 0 gusting 11 13.3
2019-Jun-20 01:33 256 2 gusting 7 13.3
2019-Jun-20 01:28 081 1 gusting 5 13.3
2019-Jun-20 01:23 087 0 gusting 6 13.3
2019-Jun-20 01:18 274 13.9
2019-Jun-20 01:13 039 0 gusting 6 13.9
2019-Jun-20 01:08 179 13.9
2019-Jun-20 01:03 058 1 gusting 7 13.9
2019-Jun-20 00:58 077 1 gusting 6 14.4
2019-Jun-20 00:53 039 0 gusting 7 14.4
2019-Jun-20 00:48 021 1 gusting 7 14.4
2019-Jun-20 00:43 273 0 gusting 6 14.4
2019-Jun-20 00:38 061 15.0
2019-Jun-20 00:33 091 0 gusting 10 15.0
2019-Jun-20 00:28 304 2 gusting 7 14.4
2019-Jun-20 00:23 138 0 gusting 6 14.4
2019-Jun-20 00:18 118 1 gusting 6 14.4
2019-Jun-20 00:13 285 0 gusting 6 14.4
2019-Jun-20 00:08 068 14.4
2019-Jun-20 00:03 058 1 gusting 6 14.4
2019-Jun-19 23:53 077 0 gusting 9 15.0
2019-Jun-19 23:48 314 1 gusting 9 15.0
2019-Jun-19 23:43 290 0 gusting 5 15.6
2019-Jun-19 23:38 072 15.6
2019-Jun-19 23:33 023 2 gusting 5 16.1
2019-Jun-19 23:28 155 16.1
2019-Jun-19 23:23 055 16.1
2019-Jun-19 23:18 316 16.1
2019-Jun-19 23:13 074 16.1
2019-Jun-19 23:08 081 16.1
2019-Jun-19 23:03 105 16.7
2019-Jun-19 22:58 043 16.7
2019-Jun-19 22:53 081 16.1
2019-Jun-19 22:48 135 16.1
2019-Jun-19 22:43 044 16.1
2019-Jun-19 22:38 129 16.1
2019-Jun-19 22:33 096 0 gusting 1 16.1
2019-Jun-19 22:28 026 16.1
2019-Jun-19 22:23 046 0 gusting 3 16.1
2019-Jun-19 22:13 039 16.7
2019-Jun-19 22:08 053 16.1
2019-Jun-19 22:03 111 0 gusting 6 16.1
2019-Jun-19 21:58 077 16.1
2019-Jun-19 21:53 161 0 gusting 3 16.1
2019-Jun-19 21:48 143 15.6
2019-Jun-19 21:38 028 15.6
2019-Jun-19 21:33 032 15.6
2019-Jun-19 21:28 025 15.6
2019-Jun-19 21:23 063 15.6
2019-Jun-19 21:18 063 15.6
2019-Jun-19 21:13 063 15.6
2019-Jun-19 21:08 044 0 gusting 2 15.6
2019-Jun-19 21:03 077 0 gusting 2 15.6
2019-Jun-19 20:58 063 15.6
2019-Jun-19 20:53 101 15.6
2019-Jun-19 20:48 084 15.6
2019-Jun-19 20:43 082 15.0
2019-Jun-19 20:38 068 1 gusting 1 15.0
2019-Jun-19 20:33 068 1 gusting 1 15.0
2019-Jun-19 20:28 099 14.4
2019-Jun-19 20:23 136 14.4
2019-Jun-19 20:18 072 15.0
2019-Jun-19 20:13 072 0 gusting 1 15.0
2019-Jun-19 20:08 075 0 gusting 2 15.6
2019-Jun-19 19:58 058 0 gusting 1 15.6
2019-Jun-19 19:53 070 0 gusting 1 15.6
2019-Jun-19 19:48 070 15.6
2019-Jun-19 19:43 072 0 gusting 1 15.6
2019-Jun-19 19:38 070 15.6
2019-Jun-19 19:33 072 0 gusting 1 15.6
2019-Jun-19 19:28 058 0 gusting 1 15.0
2019-Jun-19 19:18 063 14.4
2019-Jun-19 19:13 074 13.9
2019-Jun-19 19:08 077 0 gusting 1 13.9
2019-Jun-19 19:03 072 0 gusting 1 13.3
2019-Jun-19 18:58 072 1 gusting 1 13.3
2019-Jun-19 18:53 072 0 gusting 1 13.3
2019-Jun-19 18:48 070 0 gusting 1 13.3
2019-Jun-19 18:43 072 0 gusting 0 12.8
2019-Jun-19 18:38 076 12.8
2019-Jun-19 18:33 076 12.8
2019-Jun-19 18:28 077 12.8
2019-Jun-19 18:23 076 12.8
2019-Jun-19 18:18 076 13.3
2019-Jun-19 18:08 089 0 gusting 1 13.3
2019-Jun-19 17:58 081 13.9
2019-Jun-19 17:53 133 13.9
2019-Jun-19 17:48 238 14.4
2019-Jun-19 17:43 238 14.4
2019-Jun-19 17:33 125 14.4
2019-Jun-19 17:28 079 0 gusting 2 13.9
2019-Jun-19 17:23 028 0 gusting 2 13.9
2019-Jun-19 17:18 258 13.9
2019-Jun-19 17:13 063 0 gusting 2 13.3
2019-Jun-19 17:08 357 13.3
2019-Jun-19 17:03 118 13.3
2019-Jun-19 16:58 072 13.3
2019-Jun-19 16:53 105 13.3
2019-Jun-19 16:48 089 0 gusting 1 13.3
2019-Jun-19 16:43 075 13.3
2019-Jun-19 16:38 082 13.3
2019-Jun-19 16:33 080 12.8
2019-Jun-19 16:28 263 12.8
2019-Jun-19 16:23 028 12.8
2019-Jun-19 16:18 027 12.8
2019-Jun-19 16:13 085 12.2
2019-Jun-19 16:08 082 12.2
2019-Jun-19 16:03 013 12.2
2019-Jun-19 15:58 260 11.7
2019-Jun-19 15:53 260 11.7
2019-Jun-19 15:48 186 11.7
2019-Jun-19 15:43 258 11.7
2019-Jun-19 15:38 342 12.2
2019-Jun-19 15:28 120 12.2
2019-Jun-19 15:23 120 12.2
2019-Jun-19 15:18 055 12.2
2019-Jun-19 15:13 052 12.2
2019-Jun-19 15:08 076 12.8
2019-Jun-19 15:03 108 12.8
2019-Jun-19 14:58 108 12.8
2019-Jun-19 14:53 107 12.8
2019-Jun-19 14:43 160 12.8
2019-Jun-19 14:38 124 12.8
2019-Jun-19 14:33 117 12.8
2019-Jun-19 14:28 221 12.8
2019-Jun-19 14:23 222 12.8
2019-Jun-19 14:18 048 12.8
2019-Jun-19 14:13 059 12.8
2019-Jun-19 14:08 324 12.2
2019-Jun-19 14:03 228 12.2
2019-Jun-19 13:58 342 0 gusting 3 12.2
2019-Jun-19 13:53 085 12.2
2019-Jun-19 13:48 059 12.2
2019-Jun-19 13:38 057 11.7
2019-Jun-19 13:33 057 11.7
2019-Jun-19 13:28 070 11.7
2019-Jun-19 13:23 072 11.7
2019-Jun-19 13:18 074 11.7
2019-Jun-19 13:08 067 11.1
2019-Jun-19 13:03 094 11.1
2019-Jun-19 12:58 113 11.1
2019-Jun-19 12:53 278 10.6
2019-Jun-19 12:48 280 10.6
2019-Jun-19 12:43 281 10.6
2019-Jun-19 12:38 174 10.6
2019-Jun-19 12:33 257 10.0
2019-Jun-19 12:28 256 10.0
2019-Jun-19 12:23 256 10.0
2019-Jun-19 12:18 256 10.0
2019-Jun-19 12:13 256 10.0
2019-Jun-19 12:08 256 10.0
2019-Jun-19 12:03 257 10.0
2019-Jun-19 11:58 256 10.0
2019-Jun-19 11:53 257 10.0
2019-Jun-19 11:48 259 10.0
2019-Jun-19 11:43 259 10.0
2019-Jun-19 11:38 259 10.0
2019-Jun-19 11:33 259 10.0
2019-Jun-19 11:28 259 10.0
2019-Jun-19 11:23 257 10.0
2019-Jun-19 11:18 257 10.6
2019-Jun-19 11:13 245 10.6
2019-Jun-19 11:03 194 11.1
2019-Jun-19 10:58 194 11.1
2019-Jun-19 10:53 194 11.1
2019-Jun-19 10:38 194 11.1
2019-Jun-19 10:33 193 11.1
2019-Jun-19 10:28 194 11.1
2019-Jun-19 10:23 165 11.1
2019-Jun-19 10:18 084 10.6
2019-Jun-19 10:13 085 10.6
2019-Jun-19 10:08 218 10.6
2019-Jun-19 10:03 217 10.6
2019-Jun-19 09:58 218 10.6
2019-Jun-19 09:53 253 10.6
2019-Jun-19 09:48 252 10.6
2019-Jun-19 09:43 253 11.1
2019-Jun-19 09:38 340 11.1
2019-Jun-19 09:33 354 11.1
2019-Jun-19 09:28 354 11.1
2019-Jun-19 09:18 239 11.1
2019-Jun-19 09:08 061 11.1
2019-Jun-19 09:03 087 11.1
2019-Jun-19 08:53 065 11.1
2019-Jun-19 08:43 263 0 gusting 6 11.1
2019-Jun-19 08:38 058 11.1
2019-Jun-19 08:33 040 11.1
2019-Jun-19 08:23 260 0 gusting 4 11.1
2019-Jun-19 08:18 225 11.1
2019-Jun-19 08:13 274 11.1
2019-Jun-19 08:08 328 11.1
2019-Jun-19 08:03 316 11.1
2019-Jun-19 07:58 041 11.7
2019-Jun-19 07:53 096 11.7
2019-Jun-19 07:48 278 0 gusting 6 11.7
2019-Jun-19 07:43 281 0 gusting 4 11.7
2019-Jun-19 07:38 114 11.7
2019-Jun-19 07:33 224 0 gusting 5 11.7
2019-Jun-19 07:28 096 11.7
2019-Jun-19 07:23 322 0 gusting 3 11.7
2019-Jun-19 07:18 291 11.7
2019-Jun-19 07:13 273 11.7
2019-Jun-19 07:08 274 11.7
2019-Jun-19 07:03 302 11.7
2019-Jun-19 06:58 260 0 gusting 1 11.7
2019-Jun-19 06:53 295 0 gusting 4 11.7
2019-Jun-19 06:48 316 0 gusting 4 11.7
2019-Jun-19 06:38 123 11.7
2019-Jun-19 06:33 250 11.7
2019-Jun-19 06:28 262 11.7
2019-Jun-19 06:23 338 11.7
2019-Jun-19 06:18 284 1 gusting 5 11.7
2019-Jun-19 06:13 060 0 gusting 2 11.7
2019-Jun-19 06:08 257 11.7
2019-Jun-19 06:03 304 0 gusting 3 11.7
2019-Jun-19 05:58 162 0 gusting 2 11.7
2019-Jun-19 05:53 096 0 gusting 1 11.7
2019-Jun-19 05:48 056 11.7
2019-Jun-19 05:43 071 0 gusting 3 12.2
2019-Jun-19 05:38 074 12.2
2019-Jun-19 05:33 255 0 gusting 3 12.2
2019-Jun-19 05:28 075 0 gusting 3 12.2
2019-Jun-19 05:23 067 0 gusting 2 12.2
2019-Jun-19 05:18 271 12.2
2019-Jun-19 05:13 284 12.2
2019-Jun-19 05:08 307 12.2
2019-Jun-19 05:03 268 0 gusting 4 12.2
2019-Jun-19 04:58 056 0 gusting 5 12.2
2019-Jun-19 04:48 258 12.2
2019-Jun-19 04:43 329 0 gusting 3 11.7
2019-Jun-19 04:38 058 0 gusting 1 11.7
2019-Jun-19 04:33 274 11.7
2019-Jun-19 04:28 249 0 gusting 3 11.7
2019-Jun-19 04:23 263 0 gusting 2 12.2
2019-Jun-19 04:18 049 12.2
2019-Jun-19 04:13 218 2 gusting 9 12.2
2019-Jun-19 04:08 102 12.2
2019-Jun-19 04:03 050 1 gusting 8 12.8
2019-Jun-19 03:58 195 0 gusting 6 12.8
2019-Jun-19 03:53 307 0 gusting 6 12.8
2019-Jun-19 03:48 046 0 gusting 3 13.3
2019-Jun-19 03:43 295 0 gusting 2 13.3
2019-Jun-19 03:38 125 13.3
2019-Jun-19 03:33 128 13.9
2019-Jun-19 03:28 050 13.9
2019-Jun-19 03:23 277 13.9
2019-Jun-19 03:18 044 14.4
2019-Jun-19 03:13 321 14.4
2019-Jun-19 03:08 037 15.0
2019-Jun-19 03:03 349 15.0
2019-Jun-19 02:58 006 15.6
2019-Jun-19 02:53 218 15.6
2019-Jun-19 02:48 033 15.6
2019-Jun-19 02:43 053 15.6
2019-Jun-19 02:38 050 15.6
2019-Jun-19 02:33 050 16.1
2019-Jun-19 02:28 050 16.1
2019-Jun-19 02:23 050 16.1
2019-Jun-19 02:18 050 16.1
2019-Jun-19 02:13 050 16.1
2019-Jun-19 02:08 040 16.1
2019-Jun-19 02:03 039 16.1
2019-Jun-19 01:58 071 16.1
2019-Jun-19 01:53 070 16.1
2019-Jun-19 01:48 103 15.6
2019-Jun-19 01:43 074 15.6
2019-Jun-19 01:38 074 15.6
2019-Jun-19 01:33 049 15.6
2019-Jun-19 01:28 084 15.6
2019-Jun-19 01:23 085 15.0
2019-Jun-19 01:18 085 15.6
2019-Jun-19 01:13 139 15.0
2019-Jun-19 01:08 133 15.0
2019-Jun-19 01:03 132 15.0
2019-Jun-19 00:58 055 15.0
2019-Jun-19 00:53 050 15.0
2019-Jun-19 00:48 070 15.0
2019-Jun-19 00:43 281 15.0
2019-Jun-19 00:38 101 15.6
2019-Jun-19 00:33 070 15.6
2019-Jun-19 00:28 063 15.6
2019-Jun-19 00:23 065 15.0
2019-Jun-19 00:18 046 0 gusting 2 15.6
2019-Jun-19 00:13 068 15.6
2019-Jun-19 00:08 277 15.6
2019-Jun-19 00:03 079 0 gusting 3 15.6
2019-Jun-18 23:58 285 15.6
2019-Jun-18 23:53 022 0 gusting 3 15.6
2019-Jun-18 23:48 208 15.6
2019-Jun-18 23:43 037 0 gusting 3 15.6
2019-Jun-18 23:38 346 15.6
2019-Jun-18 23:33 094 15.6
2019-Jun-18 23:28 060 15.6
2019-Jun-18 23:23 255 15.6
2019-Jun-18 23:18 168 15.6
2019-Jun-18 23:13 134 15.6
2019-Jun-18 23:08 118 15.6
2019-Jun-18 23:03 264 15.0
2019-Jun-18 22:58 087 15.6
2019-Jun-18 22:53 228 15.6
2019-Jun-18 22:48 019 15.6
2019-Jun-18 22:43 048 0 gusting 6 15.6
2019-Jun-18 22:38 160 16.1
2019-Jun-18 22:33 346 16.1
2019-Jun-18 22:28 027 15.6
2019-Jun-18 22:23 063 15.6
2019-Jun-18 22:18 112 15.6
2019-Jun-18 22:13 053 0 gusting 2 15.6
2019-Jun-18 22:08 072 15.6
2019-Jun-18 22:03 248 15.6
2019-Jun-18 21:58 077 1 gusting 5 15.6
2019-Jun-18 21:53 060 0 gusting 6 15.0
2019-Jun-18 21:48 018 1 gusting 6 15.0
2019-Jun-18 21:43 043 0 gusting 5 15.0
2019-Jun-18 21:13 057 0 gusting 5 15.0
2019-Jun-18 21:08 298 1 gusting 5 15.0
2019-Jun-18 21:03 222 0 gusting 4 15.0
2019-Jun-18 20:58 165 15.0
2019-Jun-18 20:53 122 0 gusting 6 15.6
2019-Jun-18 20:48 074 0 gusting 5 15.6
2019-Jun-18 20:43 105 0 gusting 6 15.6
2019-Jun-18 20:38 089 15.0
2019-Jun-18 20:33 162 0 gusting 3 15.0
2019-Jun-18 20:28 041 15.6
2019-Jun-18 20:23 056 15.6
2019-Jun-18 20:18 055 0 gusting 4 15.6
2019-Jun-18 20:13 300 0 gusting 3 15.6
2019-Jun-18 20:08 117 0 gusting 5 15.6
2019-Jun-18 20:03 075 1 gusting 6 15.6
2019-Jun-18 19:58 037 0 gusting 4 15.6
2019-Jun-18 19:53 050 0 gusting 2 15.6
2019-Jun-18 19:48 264 0 gusting 3 15.6
2019-Jun-18 19:43 085 0 gusting 5 15.6
2019-Jun-18 19:38 115 1 gusting 5 15.6
2019-Jun-18 19:33 039 1 gusting 5 15.6
2019-Jun-18 19:28 030 0 gusting 4 15.6
2019-Jun-18 19:23 053 15.6
2019-Jun-18 19:13 218 16.1
2019-Jun-18 19:08 033 16.1
2019-Jun-18 19:03 328 16.1
2019-Jun-18 18:58 063 16.1
2019-Jun-18 18:53 269 16.1
2019-Jun-18 18:48 246 16.1
2019-Jun-18 18:43 172 0 gusting 5 16.1
2019-Jun-18 18:38 055 16.7
2019-Jun-18 18:33 271 16.7
2019-Jun-18 18:28 160 0 gusting 5 16.7
2019-Jun-18 18:23 153 0 gusting 6 16.7
2019-Jun-18 18:18 349 0 gusting 6 16.7
2019-Jun-18 18:13 266 17.2
2019-Jun-18 18:08 313 0 gusting 4 17.2
2019-Jun-18 18:03 206 0 gusting 7 17.2
2019-Jun-18 17:58 079 17.2
2019-Jun-18 17:53 066 0 gusting 6 17.2
2019-Jun-18 17:48 059 1 gusting 6 16.7
2019-Jun-18 17:43 126 1 gusting 6 16.7
2019-Jun-18 17:38 289 1 gusting 7 16.1
2019-Jun-18 17:28 050 16.7
2019-Jun-18 17:23 053 2 gusting 11 16.7
2019-Jun-18 17:18 082 0 gusting 5 16.7
2019-Jun-18 17:13 053 0 gusting 5 16.1
2019-Jun-18 17:08 070 0 gusting 6 16.1
2019-Jun-18 17:03 056 1 gusting 7 16.1
2019-Jun-18 16:58 068 1 gusting 7 15.6
2019-Jun-18 16:53 283 0 gusting 6 15.0
2019-Jun-18 16:48 058 0 gusting 6 14.4
2019-Jun-18 16:43 117 0 gusting 6 14.4
2019-Jun-18 16:38 004 0 gusting 6 13.9
2019-Jun-18 16:33 224 1 gusting 6 13.9
2019-Jun-18 16:28 071 0 gusting 4 13.9
2019-Jun-18 16:23 021 13.9
2019-Jun-18 16:18 277 13.9
2019-Jun-18 16:13 105 0 gusting 6 14.4
2019-Jun-18 16:08 079 0 gusting 7 14.4
2019-Jun-18 16:03 022 0 gusting 5 15.0
2019-Jun-18 15:58 260 1 gusting 6 15.0
2019-Jun-18 15:53 110 0 gusting 6 14.4
2019-Jun-18 15:48 032 0 gusting 6 14.4
2019-Jun-18 15:43 354 1 gusting 5 14.4
2019-Jun-18 15:38 267 0 gusting 6 14.4
2019-Jun-18 15:33 170 0 gusting 6 14.4
2019-Jun-18 15:28 292 2 gusting 6 13.9
2019-Jun-18 15:23 284 1 gusting 4 13.9
2019-Jun-18 15:18 082 0 gusting 4 13.9
2019-Jun-18 15:13 051 13.3
2019-Jun-18 15:08 041 0 gusting 5 13.3
2019-Jun-18 15:03 075 1 gusting 5 13.3
2019-Jun-18 14:58 006 2 gusting 8 13.3
2019-Jun-18 14:53 018 0 gusting 8 13.3
2019-Jun-18 14:48 119 0 gusting 6 13.3
2019-Jun-18 14:43 057 0 gusting 10 13.3
2019-Jun-18 14:38 056 2 gusting 10 13.3
2019-Jun-18 14:33 030 1 gusting 7 12.8
2019-Jun-18 14:28 250 1 gusting 5 12.8
2019-Jun-18 14:23 277 1 gusting 8 12.8
2019-Jun-18 14:18 172 0 gusting 8 12.8
2019-Jun-18 14:13 277 0 gusting 6 12.8
2019-Jun-18 14:08 063 0 gusting 6 12.8
2019-Jun-18 14:03 069 0 gusting 8 12.8
2019-Jun-18 13:58 318 0 gusting 8 12.8
2019-Jun-18 13:53 307 0 gusting 6 12.2
2019-Jun-18 13:48 246 0 gusting 4 12.2
2019-Jun-18 13:43 302 12.2
2019-Jun-18 13:38 308 12.2
2019-Jun-18 13:33 145 0 gusting 5 12.2
2019-Jun-18 13:28 273 0 gusting 5 12.2
2019-Jun-18 13:18 102 0 gusting 6 12.2
2019-Jun-18 13:13 076 12.2
2019-Jun-18 13:08 094 0 gusting 5 12.2
2019-Jun-18 13:03 325 0 gusting 5 12.2
2019-Jun-18 12:58 295 1 gusting 6 12.2
2019-Jun-18 12:53 280 0 gusting 5 12.2
2019-Jun-18 12:48 294 0 gusting 6 12.2
2019-Jun-18 12:43 060 12.2
2019-Jun-18 12:38 086 1 gusting 8 12.2
2019-Jun-18 12:33 076 0 gusting 6 12.2
2019-Jun-18 12:28 280 12.2
2019-Jun-18 12:23 098 0 gusting 6 12.2
2019-Jun-18 12:18 120 12.2
2019-Jun-18 12:13 056 12.2
2019-Jun-18 12:08 032 0 gusting 5 12.2
2019-Jun-18 11:58 329 0 gusting 4 12.2
2019-Jun-18 11:53 047 0 gusting 4 12.2
2019-Jun-18 11:48 058 12.2
2019-Jun-18 11:43 056 12.8
2019-Jun-18 11:33 307 0 gusting 4 12.8
2019-Jun-18 11:28 136 0 gusting 4 12.8
2019-Jun-18 11:18 257 12.8
2019-Jun-18 11:08 291 1 gusting 6 12.8
2019-Jun-18 11:03 083 12.8
2019-Jun-18 10:58 135 12.8
2019-Jun-18 10:53 013 12.8
2019-Jun-18 10:48 028 13.3
2019-Jun-18 10:43 143 13.3
2019-Jun-18 10:38 267 0 gusting 5 13.3
2019-Jun-18 10:28 057 13.3
2019-Jun-18 10:23 030 13.3
2019-Jun-18 10:18 044 13.3
2019-Jun-18 10:13 316 0 gusting 4 13.3
2019-Jun-18 10:03 057 13.3
2019-Jun-18 09:58 050 13.3
2019-Jun-18 09:53 001 13.3
2019-Jun-18 09:48 116 13.3
2019-Jun-18 09:43 050 13.3
2019-Jun-18 09:38 252 13.3
2019-Jun-18 09:33 070 13.3
2019-Jun-18 09:28 012 13.3
2019-Jun-18 09:23 009 13.3
2019-Jun-18 09:13 068 13.9
2019-Jun-18 09:08 300 13.9
2019-Jun-18 09:03 021 0 gusting 2 13.9
2019-Jun-18 08:53 081 13.9
2019-Jun-18 08:48 037 0 gusting 2 13.3
2019-Jun-18 08:43 271 13.3
2019-Jun-18 08:38 191 0 gusting 1 13.3
2019-Jun-18 08:33 050 13.3
2019-Jun-18 08:28 078 13.3
2019-Jun-18 08:23 226 13.3
2019-Jun-18 08:18 052 13.3
2019-Jun-18 08:13 338 0 gusting 3 13.3
2019-Jun-18 08:08 025 1 gusting 2 13.9
2019-Jun-18 08:03 276 13.9
2019-Jun-18 07:58 276 1 gusting 9 13.9
2019-Jun-18 07:53 043 1 gusting 6 13.9
2019-Jun-18 07:48 032 0 gusting 5 13.9
2019-Jun-18 07:38 103 0 gusting 4 13.9
2019-Jun-18 07:33 255 0 gusting 4 13.9
2019-Jun-18 07:28 307 13.9
2019-Jun-18 07:23 360 0 gusting 3 13.9
2019-Jun-18 07:18 052 13.9
2019-Jun-18 07:13 063 13.9
2019-Jun-18 07:08 029 1 gusting 4 13.9
2019-Jun-18 07:03 039 0 gusting 4 13.9
2019-Jun-18 06:58 088 1 gusting 4 13.9
2019-Jun-18 06:53 120 13.9
2019-Jun-18 06:48 229 0 gusting 6 13.9
2019-Jun-18 06:43 339 14.4
2019-Jun-18 06:38 044 0 gusting 5 14.4
2019-Jun-18 06:33 019 0 gusting 5 14.4
2019-Jun-18 06:28 067 1 gusting 5 14.4
2019-Jun-18 06:23 257 0 gusting 3 14.4
2019-Jun-18 06:18 039 0 gusting 3 14.4
2019-Jun-18 06:13 043 14.4
2019-Jun-18 06:08 045 0 gusting 5 14.4
2019-Jun-18 06:03 039 1 gusting 6 14.4
2019-Jun-18 05:58 149 0 gusting 3 14.4
2019-Jun-18 05:48 116 14.4
2019-Jun-18 05:43 307 0 gusting 4 14.4
2019-Jun-18 05:28 243 0 gusting 3 14.4
2019-Jun-18 05:23 136 14.4
2019-Jun-18 05:13 274 0 gusting 4 14.4
2019-Jun-18 05:08 057 14.4
2019-Jun-18 05:03 043 14.4
2019-Jun-18 04:58 039 14.4
2019-Jun-18 04:53 077 14.4
2019-Jun-18 04:48 256 14.4
2019-Jun-18 04:44 239 14.4
2019-Jun-18 04:28 068 15.0
2019-Jun-18 04:23 068 15.0
2019-Jun-18 04:18 068 15.0
2019-Jun-18 04:13 068 15.0
2019-Jun-18 04:08 068 15.0
2019-Jun-18 04:03 068 15.0
2019-Jun-18 03:58 072 15.6
2019-Jun-18 03:53 071 15.6
2019-Jun-18 03:48 071 15.6
2019-Jun-18 03:43 139 15.6
2019-Jun-18 03:38 111 15.6
2019-Jun-18 03:33 248 15.6
2019-Jun-18 03:28 229 16.1
2019-Jun-18 03:23 152 16.1
2019-Jun-18 03:13 193 16.1
2019-Jun-18 03:08 194 16.1
2019-Jun-18 03:03 052 16.1